Theta_e
339 337 334 333 332 332 334 335 336 336 335 335 334 333 329 323 317 313 312 313 314 315 318 321 324 328 331 333 335 335 336 335 333 331 330 330 332 334 335 336 337 338 338 338 338 338 337 336 336 335 335 335 334 334 334 333 331 331 331 332 331 330 330 329 327 325 322 317 312 310 313 323 324 316 310 307 308 308 309 311 309 310 310 311 318
340 336 334 332 331 331 333 334 335 335 335 335 334 333 330 324 318 313 312 313 314 314 317 320 324 327 330 332 335 336 337 337 337 337 336 337 337 338 338 338 338 338 338 338 338 338 337 336 336 335 335 334 334 334 332 328 327 328 329 330 330 328 325 323 321 316 313 312 311 309 310 316 319 318 313 306 307 307 309 311 313 314 313 314 319
339 334 333 332 331 331 332 334 335 335 335 335 334 333 330 325 319 313 311 313 314 314 316 319 323 327 330 333 335 336 337 337 337 337 338 338 338 338 338 338 337 338 338 338 338 337 337 336 335 335 334 334 334 333 328 325 326 327 328 329 329 328 324 322 321 316 312 310 310 309 311 317 320 320 314 307 307 307 308 311 312 314 314 315 318
339 334 333 332 331 330 331 333 335 335 335 335 334 333 331 326 320 314 311 313 314 314 315 318 321 326 330 333 335 336 337 337 337 337 338 338 338 338 338 338 338 338 338 338 338 337 337 336 335 334 334 334 333 333 327 325 328 328 328 330 330 329 326 325 320 314 314 313 310 309 313 320 324 320 312 307 309 309 309 311 312 313 315 318 317
341 335 333 332 331 329 330 332 334 335 335 335 334 334 332 326 320 313 311 313 314 314 315 317 320 325 330 333 335 336 337 337 337 337 338 338 338 338 338 338 338 338 338 338 337 338 337 336 335 333 333 333 333 332 327 327 330 330 330 330 331 330 329 329 325 316 314 315 312 310 314 319 321 322 319 316 314 314 314 312 312 314 314 315 313
341 337 333 331 331 329 329 332 333 334 335 335 334 333 331 325 319 313 311 312 313 314 315 317 319 323 329 332 334 335 336 337 337 337 338 338 338 338 338 338 338 338 338 338 338 337 336 336 334 332 330 329 330 330 326 329 331 330 331 331 331 331 331 330 328 323 315 315 313 311 316 319 317 319 321 317 314 314 315 313 312 314 314 313 311
341 337 333 331 330 328 329 331 333 334 335 335 334 333 330 324 318 313 311 311 313 313 314 317 319 321 326 330 332 334 335 336 337 337 338 338 337 338 338 337 337 337 338 338 337 336 335 334 333 329 324 320 323 325 325 330 331 330 330 330 331 331 331 328 325 323 318 315 313 310 314 317 315 314 316 315 315 314 312 313 312 312 312 313 312
340 335 332 331 330 328 328 330 333 334 335 334 334 332 329 324 318 313 311 311 312 313 314 316 318 320 323 328 331 333 334 336 337 337 337 337 337 337 336 336 336 335 335 334 334 333 332 331 330 324 316 311 312 317 324 330 329 329 330 331 331 329 328 325 323 320 316 313 310 310 311 313 313 313 313 313 315 314 312 314 313 312 311 312 312
339 334 332 331 330 327 327 329 332 334 334 334 333 331 328 323 318 314 310 311 312 312 313 315 317 319 321 325 329 331 333 335 337 337 337 337 336 334 333 333 333 331 329 328 327 326 325 324 323 316 310 308 307 315 325 329 329 330 331 331 330 328 325 324 324 321 315 312 310 311 311 312 312 311 311 310 311 311 312 312 313 313 312 313 312
336 333 332 332 330 326 324 328 331 333 333 333 332 330 327 322 318 313 310 311 312 312 313 314 315 317 320 323 325 327 330 334 336 336 336 336 335 332 330 329 328 328 326 324 321 318 316 315 314 310 308 308 309 319 327 329 330 331 331 331 331 328 325 323 322 319 315 312 310 311 311 312 311 311 311 311 311 311 312 312 313 313 313 313 313
334 333 332 331 329 324 323 326 330 331 331 331 330 329 325 321 317 312 310 311 311 312 312 313 314 316 319 321 322 324 326 330 332 334 334 334 333 332 330 327 326 325 324 321 316 312 310 310 309 308 308 308 314 324 329 330 331 330 330 330 330 326 322 320 318 316 314 313 311 311 312 312 311 311 310 310 311 311 312 312 312 313 313 313 313
334 333 332 331 326 321 321 325 328 328 329 329 328 326 323 320 316 311 310 311 311 312 312 313 314 315 316 318 321 321 323 325 328 329 330 330 330 331 329 326 323 321 320 317 312 309 309 309 308 309 308 310 319 327 330 330 329 329 329 329 328 323 318 317 316 315 314 314 312 311 312 312 311 311 311 311 311 311 312 313 313 312 312 312 312
335 334 332 327 321 319 321 324 325 325 325 325 324 322 320 318 314 310 309 310 311 313 313 313 313 313 314 316 319 319 320 322 324 326 327 326 327 328 326 323 321 319 317 313 309 309 309 309 308 308 308 312 322 328 330 330 330 330 330 329 328 324 320 318 316 315 314 313 311 311 312 311 311 311 310 311 311 311 312 312 312 313 312 312 312
335 333 329 322 318 318 320 321 321 321 321 321 320 319 318 315 312 310 310 310 311 313 313 313 313 314 313 313 315 317 319 321 322 324 325 323 322 324 323 320 319 317 314 310 309 309 308 308 309 308 310 316 325 329 330 331 332 332 331 331 330 326 322 320 318 317 315 313 311 311 312 312 312 311 311 311 312 311 312 312 312 313 312 312 312
335 331 324 317 317 318 319 319 319 319 319 318 317 316 315 313 311 310 310 310 311 312 313 314 314 314 313 313 314 316 317 319 321 322 322 319 318 320 318 316 316 314 311 309 309 309 309 309 308 308 312 321 328 330 332 332 332 332 333 332 330 325 320 319 318 317 315 312 311 312 312 312 312 312 311 311 312 312 312 312 312 313 313 312 312
335 328 319 316 317 317 318 318 317 317 316 315 314 314 313 312 310 310 310 310 311 311 313 314 314 314 313 313 313 315 316 317 319 320 319 317 316 316 314 313 313 311 309 309 309 309 309 309 309 308 312 323 329 330 332 332 332 333 333 333 330 325 322 321 319 318 316 313 312 312 312 312 312 312 312 312 312 312 312 313 313 313 312 312 311
333 324 317 316 316 316 316 316 316 315 314 314 313 313 313 312 310 310 310 310 310 311 312 313 314 314 314 313 313 314 315 316 317 318 317 316 315 314 311 311 311 309 309 309 309 309 309 309 309 308 311 322 328 330 332 331 332 333 333 332 329 326 324 322 321 321 318 314 313 312 312 313 313 313 312 312 312 312 312 313 313 312 312 312 311
329 322 317 316 316 316 316 316 315 315 314 314 314 314 313 312 311 310 310 310 310 310 311 312 313 313 314 313 313 313 314 315 316 316 316 316 316 314 311 310 310 310 310 310 310 309 310 309 309 309 311 320 328 330 331 331 332 333 333 332 330 329 326 324 325 324 321 317 314 312 313 313 312 313 312 312 312 312 312 312 312 311 312 311 310
327 320 317 317 317 318 318 317 316 315 315 314 314 314 314 313 312 311 310 310 310 310 311 312 312 313 313 313 313 313 313 314 315 316 316 315 315 316 313 312 311 310 311 310 310 310 310 310 310 309 310 316 325 330 331 332 333 334 333 333 332 331 328 327 326 325 323 320 315 312 312 312 312 312 312 312 312 312 312 312 311 311 311 310 309
325 319 318 318 319 320 319 319 317 316 315 315 314 314 315 314 313 312 311 311 311 311 311 312 313 313 313 313 313 313 313 313 314 315 316 315 315 316 316 314 313 312 311 311 311 310 310 310 310 310 310 314 321 328 330 332 333 333 333 333 332 330 328 328 327 327 326 320 315 312 311 311 311 311 312 312 312 312 312 312 312 311 311 309 308
324 319 319 319 320 320 320 321 320 319 318 317 315 314 314 314 314 313 313 313 312 312 312 313 313 313 313 313 313 313 313 313 312 313 316 317 316 316 317 317 315 314 313 313 312 311 310 310 310 310 310 313 320 326 329 331 333 333 332 331 330 328 328 328 328 329 328 322 315 311 310 310 310 311 311 312 312 312 313 312 312 311 310 309 308
325 321 320 320 321 321 321 323 322 322 322 321 318 315 314 313 313 313 313 313 313 313 313 313 313 313 313 313 314 316 318 319 318 316 315 316 316 317 318 318 318 317 316 315 314 313 312 311 310 310 310 312 318 324 327 329 331 331 331 329 327 328 328 328 328 330 329 324 316 310 309 310 311 311 311 312 313 313 313 312 312 311 309 308 308
328 324 323 322 323 323 323 324 324 325 324 324 322 319 317 315 314 314 314 313 314 314 313 313 313 313 313 315 317 320 325 329 329 326 322 318 315 315 316 318 318 319 319 318 317 316 315 313 312 310 309 310 314 320 324 327 327 328 331 329 325 327 328 327 327 328 329 325 319 312 310 310 311 311 312 313 313 313 313 312 311 311 309 308 308
331 329 327 326 326 325 324 324 325 325 326 326 325 323 321 320 319 318 318 318 318 318 317 316 315 315 316 320 324 326 328 330 330 330 330 327 321 317 315 315 316 319 319 319 318 319 319 318 315 313 311 309 311 317 322 323 325 328 331 330 326 326 326 325 325 326 328 328 323 315 311 311 312 312 313 313 314 314 313 312 311 310 309 308 309
334 334 333 332 330 329 330 328 327 327 327 328 327 326 326 325 326 325 324 323 323 322 321 320 320 320 323 326 328 330 329 328 328 329 331 331 330 326 322 318 315 316 318 318 318 319 320 320 319 317 315 312 309 313 319 321 323 326 328 329 327 325 326 326 325 326 329 329 325 319 314 312 313 313 314 314 315 314 312 311 310 309 309 309 310
338 338 337 337 336 336 336 335 333 333 331 329 328 327 328 329 329 329 328 327 326 325 325 325 325 326 328 329 329 329 330 329 329 329 329 329 331 331 330 327 321 316 315 316 317 318 319 320 321 320 319 317 314 312 313 317 319 321 325 328 329 328 328 329 327 328 330 329 326 323 318 315 315 316 316 316 316 315 312 311 310 310 310 310 312
341 340 340 340 339 339 339 338 337 337 335 334 331 328 329 330 330 330 329 329 329 327 328 330 330 331 332 331 331 330 330 331 330 330 329 329 329 330 331 332 329 324 318 315 315 317 319 320 321 322 322 322 324 320 317 318 320 322 325 328 331 330 330 331 330 330 331 330 329 325 321 319 318 319 319 318 318 315 312 311 311 310 311 312 314
341 341 341 340 340 339 339 338 338 337 337 337 335 332 332 333 333 333 332 332 333 332 332 333 332 332 332 333 333 332 331 332 332 332 332 331 331 330 330 332 333 331 325 319 315 315 318 320 320 322 323 324 328 329 328 326 325 327 327 328 332 332 331 331 331 331 331 331 330 327 323 321 321 321 321 320 318 314 311 311 310 310 312 314 316
342 341 341 340 339 339 339 339 338 338 337 336 336 335 335 335 335 335 335 335 334 334 334 334 333 332 332 332 333 333 333 332 332 333 333 333 332 332 331 331 332 332 331 326 320 315 315 318 320 322 323 325 328 332 334 333 332 332 330 329 331 332 332 332 332 332 331 331 331 330 326 323 324 323 323 321 317 313 311 310 311 311 313 316 318
341 341 340 340 339 339 338 339 338 337 336 335 335 336 336 336 336 336 336 335 335 334 334 334 333 332 332 332 333 333 333 333 332 332 333 333 332 332 331 331 331 332 332 331 327 322 318 319 321 322 323 325 327 332 336 335 334 334 332 331 332 332 331 332 332 332 332 331 331 330 328 325 326 325 323 320 315 311 311 311 312 313 315 317 319
340 340 339 339 339 338 338 338 338 337 336 335 335 335 336 336 335 335 335 335 335 335 334 334 333 333 333 333 332 332 332 332 332 331 332 332 332 331 331 331 330 330 331 332 331 329 325 323 323 323 324 324 325 330 334 335 334 334 333 332 333 332 332 331 331 332 332 331 331 330 328 326 328 327 323 318 313 310 311 311 313 315 316 318 320
340 339 339 338 338 337 337 337 337 337 336 335 335 334 335 335 335 335 334 334 334 334 333 332 332 332 333 333 332 331 330 330 330 330 330 331 330 330 330 329 329 330 331 332 332 331 329 328 327 326 326 326 326 328 331 333 333 334 333 332 332 333 332 331 330 331 332 331 331 330 328 328 329 329 322 316 313 312 311 313 314 316 318 320 322
339 338 338 338 338 337 337 336 336 336 336 336 334 333 333 334 334 334 332 331 330 331 330 330 330 331 331 331 330 330 329 329 329 329 329 329 329 329 329 328 328 329 330 331 332 332 331 331 330 329 329 328 328 329 331 332 332 332 333 332 332 332 332 332 331 331 331 331 331 330 329 330 330 330 323 316 315 314 313 314 316 319 321 323 324
338 339 338 337 337 336 336 336 336 335 335 336 334 333 332 332 331 330 330 330 329 330 330 330 331 332 331 330 330 330 330 330 329 329 329 328 329 329 329 328 329 329 329 330 331 332 331 331 331 331 331 330 329 329 329 330 331 330 331 332 332 331 331 332 331 331 332 332 331 330 330 331 331 331 327 321 318 316 314 316 318 321 324 325 325
338 338 338 337 336 336 335 336 336 335 335 335 334 333 332 331 330 330 332 333 332 332 331 331 331 331 330 330 330 331 331 331 330 329 329 328 328 328 328 327 328 329 329 330 331 331 331 331 332 332 332 331 330 329 328 328 329 329 330 332 332 331 332 331 331 332 332 332 330 329 330 331 331 331 329 327 324 319 316 317 320 324 326 327 326
338 337 337 337 336 336 336 336 336 336 335 334 334 334 333 332 332 333 334 335 333 332 331 331 331 329 328 328 329 330 331 331 331 330 330 330 330 329 329 329 328 328 328 329 330 330 331 331 331 331 331 331 331 330 330 329 329 329 329 331 332 331 331 331 331 331 332 331 329 328 330 331 331 331 330 329 328 324 319 317 320 325 327 327 327
339 338 338 337 337 336 336 337 336 335 335 335 335 334 333 333 333 333 334 334 333 332 332 331 330 328 327 327 327 328 330 331 331 331 331 331 331 331 330 330 329 328 327 328 328 329 329 329 329 329 330 331 331 331 330 330 330 330 329 331 332 331 330 330 331 332 332 331 329 328 329 330 331 330 330 329 329 328 324 320 321 324 326 327 328
339 338 338 337 337 337 337 337 336 336 335 335 336 334 333 333 333 333 333 333 333 333 333 332 330 328 327 327 326 328 330 331 331 331 331 331 331 332 332 331 331 330 329 329 328 328 329 329 328 328 329 330 331 331 331 331 330 330 330 330 333 332 330 330 331 332 332 332 331 330 328 329 330 330 330 330 330 329 328 326 325 325 325 326 327
339 338 338 338 338 338 338 337 337 337 337 336 336 335 335 335 335 334 334 333 333 333 333 332 331 329 328 328 328 329 329 330 331 332 332 332 332 332 332 332 332 331 331 330 330 330 330 329 329 328 328 328 329 328 329 330 331 331 330 330 332 332 331 331 331 331 331 331 332 332 331 330 330 329 329 329 330 330 329 329 328 326 325 325 326
339 339 338 337 338 338 338 337 337 337 337 337 336 336 336 336 336 335 334 334 334 333 333 333 332 331 330 330 330 330 330 329 330 332 332 333 333 333 333 333 333 332 331 330 330 330 330 330 330 329 328 327 327 326 327 329 330 331 331 331 331 332 332 332 332 332 331 330 331 332 332 331 330 328 328 329 330 330 330 330 328 327 327 326 325
339 339 338 337 337 338 337 337 337 337 337 337 336 336 336 335 335 335 335 335 334 333 332 332 332 332 331 331 331 331 331 330 330 331 332 333 333 334 334 333 333 333 332 331 330 330 330 331 331 331 330 329 328 328 328 329 331 331 332 332 331 331 331 332 332 332 332 331 330 331 331 331 329 328 328 328 329 329 330 329 328 328 327 326 325
338 338 338 337 337 337 337 337 337 337 337 337 336 336 336 334 334 334 334 334 334 333 332 332 332 332 332 331 331 332 332 332 332 332 332 333 333 333 334 334 335 334 332 331 331 331 332 331 331 331 332 331 331 330 330 331 331 331 331 331 331 330 330 331 332 332 332 332 331 331 331 331 330 328 328 328 329 329 330 329 328 328 328 326 325
338 338 338 338 337 336 337 337 337 337 337 337 336 336 336 335 334 334 334 333 333 333 332 331 331 331 331 331 331 331 332 332 332 332 333 333 333 333 333 335 335 331 328 330 331 330 331 332 332 332 333 333 332 332 331 331 331 331 332 331 331 330 330 330 331 331 331 332 331 331 331 331 330 328 328 328 328 329 330 329 328 328 328 327 325
338 337 337 338 337 337 337 337 337 337 337 336 336 336 335 336 335 334 334 334 333 333 331 330 331 331 330 330 331 331 331 331 330 331 332 333 333 334 334 334 334 330 328 330 330 330 330 331 332 332 333 333 333 331 331 331 331 332 332 332 331 330 330 330 330 330 330 331 331 331 330 330 329 328 328 328 328 329 330 330 329 328 328 327 326
336 335 335 336 337 337 336 336 336 336 336 335 335 336 336 336 336 335 335 335 335 333 332 331 331 331 331 331 331 331 331 330 329 330 331 332 333 333 334 333 333 332 331 331 331 331 330 331 331 332 332 332 332 331 330 330 330 331 332 332 331 330 330 330 329 329 329 329 331 331 330 329 328 328 329 328 327 329 330 330 329 329 328 328 327
335 334 334 335 335 336 335 335 335 335 335 336 336 336 336 337 336 336 335 335 335 335 334 333 333 332 332 331 331 331 331 330 330 331 331 332 332 333 333 333 333 332 332 332 332 332 331 331 331 332 332 332 332 331 330 330 330 331 331 332 332 331 330 330 330 329 329 329 330 331 331 329 328 328 329 328 328 330 330 330 329 329 329 328 327
333 333 333 333 333 334 334 333 333 333 334 335 335 335 335 335 335 335 335 334 334 334 334 334 334 334 333 332 332 331 331 330 330 331 331 332 332 333 333 333 333 332 332 333 333 333 332 332 332 332 331 332 332 332 331 331 331 331 331 332 332 331 331 331 330 330 329 329 329 330 330 330 329 329 329 329 329 330 330 329 329 329 329 328 327
332 333 332 331 332 332 332 331 331 332 332 333 334 334 334 334 334 334 334 334 333 333 333 334 334 334 334 333 332 332 331 330 330 330 331 332 332 332 332 332 332 331 332 332 333 333 332 332 332 332 332 332 332 332 332 332 332 331 331 332 332 332 331 331 331 330 330 329 329 329 329 330 330 330 329 329 329 330 330 330 329 329 329 328 328
330 330 329 329 331 331 330 329 329 329 329 330 332 332 332 332 333 333 333 333 333 332 332 332 332 332 333 333 332 332 332 331 331 331 332 332 332 332 332 332 331 332 332 332 332 332 332 332 331 331 331 332 332 332 332 331 331 331 331 331 331 331 331 331 331 331 330 329 329 328 328 330 331 331 330 329 329 329 329 329 329 329 329 328 328
327 326 326 327 328 327 326 325 325 325 326 327 329 330 330 330 331 331 331 332 331 331 331 331 330 331 331 332 331 331 331 331 331 332 332 332 332 332 332 332 332 332 332 332 332 332 331 331 331 331 331 331 331 331 331 331 331 331 331 331 331 331 331 331 331 331 330 329 329 328 327 328 329 329 329 328 328 328 328 329 329 329 329 328 328
324 323 324 324 324 323 322 322 321 322 323 325 326 328 328 328 329 329 330 330 330 330 329 329 328 329 330 330 330 329 329 329 330 331 331 330 331 331 331 331 331 331 331 331 331 331 331 331 331 331 330 330 330 330 330 331 331 330 331 331 331 331 331 331 331 331 331 330 330 328 327 327 327 327 326 326 327 327 328 328 329 329 329 328 328
Wind_Speed
22 21 21 19 19 19 19 20 21 21 19 18 16 14 14 14 14 15 15 14 14 14 15 17 17 17 18 18 18 18 18 17 17 17 17 16 16 15 15 15 15 15 14 14 13 13 13 13 13 13 13 14 15 15 16 17 17 17 16 15 15 13 12 11 9 7 6 5 7 9 11 13 12 12 14 14 14 13 14 14 14 14 15 15 16
22 22 21 20 19 19 19 20 20 20 19 18 16 14 14 14 14 14 15 14 14 14 15 16 16 17 17 17 17 17 17 17 17 17 16 16 16 16 16 16 15 15 14 13 13 13 13 13 13 13 13 14 15 16 18 18 17 16 15 14 14 13 13 13 12 11 9 8 8 9 10 12 12 13 14 16 15 15 15 15 15 17 17 16 16
21 22 21 20 19 19 19 19 20 20 19 17 16 14 13 13 13 14 15 14 14 14 14 15 16 16 16 17 16 17 18 18 18 17 17 17 17 16 16 16 15 15 14 13 12 13 13 13 13 13 14 14 16 17 17 17 17 17 16 15 14 13 13 14 15 16 15 12 9 9 11 13 14 14 16 17 16 15 16 17 17 18 18 17 17
20 22 21 21 20 19 20 19 19 19 19 17 15 13 13 12 13 14 14 14 14 15 15 15 15 16 16 17 16 17 17 18 18 18 17 17 17 16 16 15 15 14 13 13 12 12 12 13 13 14 14 15 16 16 17 17 17 17 17 15 14 13 14 16 16 16 17 15 11 10 14 17 17 16 16 17 16 16 16 17 17 18 18 17 17
19 21 21 22 21 20 20 19 19 19 18 17 15 13 12 12 13 14 14 14 14 15 15 15 15 16 16 16 16 17 17 17 18 17 18 17 16 16 15 14 14 13 13 12 12 12 12 13 13 14 14 14 14 15 16 17 17 17 16 14 14 12 13 16 15 15 16 16 12 13 17 18 18 17 17 16 16 17 16 16 17 17 17 17 17
18 21 21 22 21 20 20 19 19 18 18 16 15 13 12 12 12 13 14 14 14 14 15 15 15 16 16 16 16 16 17 17 17 17 17 17 16 15 14 13 12 12 12 11 11 11 12 12 13 13 12 11 12 13 14 16 16 15 15 14 13 12 11 13 12 12 13 15 12 13 18 19 18 17 16 16 16 15 15 16 16 16 17 17 16
17 20 21 21 21 21 20 19 18 18 17 16 15 13 12 11 12 13 13 14 14 14 15 15 15 15 15 15 16 16 16 16 16 17 17 16 15 14 13 12 11 11 10 10 10 10 10 10 11 10 10 9 10 12 15 16 16 16 15 14 13 11 10 11 12 10 10 13 12 13 18 19 18 17 16 16 15 14 15 15 15 16 17 17 16
17 21 21 21 21 20 20 19 18 18 17 16 14 13 12 11 12 13 13 13 14 14 14 15 15 15 15 14 15 15 16 16 16 16 16 15 14 13 12 11 11 10 9 8 8 7 8 8 9 9 8 9 11 14 17 17 16 15 14 12 11 10 10 10 11 10 11 13 11 12 18 19 18 17 16 14 14 14 15 15 15 16 16 15 15
19 21 21 20 20 20 20 20 19 18 17 15 14 13 12 11 11 13 13 13 14 14 14 14 14 14 14 14 14 14 15 15 15 14 14 14 12 11 10 10 9 9 8 7 6 6 6 7 8 9 8 10 14 18 19 18 16 14 13 11 9 9 9 10 9 9 11 12 10 12 17 17 17 16 15 14 14 14 14 13 13 14 13 13 13
21 22 21 20 19 19 20 20 20 18 17 16 14 13 11 11 12 13 13 14 14 14 13 13 13 13 13 13 13 13 13 14 14 13 13 12 11 9 8 8 7 7 7 6 5 5 6 8 10 11 11 13 17 21 21 18 16 14 13 11 8 8 9 10 10 10 11 12 10 11 16 16 16 15 14 13 13 13 12 12 12 12 12 12 12
22 21 20 19 19 19 20 21 20 19 18 16 14 13 11 11 12 13 14 14 13 13 13 12 13 13 13 13 12 12 12 12 12 12 11 10 9 8 7 6 5 5 6 6 6 7 7 9 11 12 12 15 21 23 21 19 17 15 13 10 7 6 9 11 11 11 10 10 8 10 14 15 15 14 13 12 12 11 11 11 10 10 10 10 11
22 21 19 19 19 19 20 20 20 19 18 16 14 13 11 12 12 13 14 14 13 13 13 12 13 13 12 12 12 11 11 11 11 11 10 9 8 7 6 5 5 5 6 7 8 8 8 10 12 12 13 18 23 23 22 20 17 15 13 10 7 6 8 9 10 10 8 7 7 8 11 13 13 13 12 11 10 9 9 9 8 8 8 8 8
23 20 19 18 19 19 20 20 20 19 18 16 15 13 12 12 12 13 14 14 13 13 13 12 12 12 12 11 11 11 11 11 10 10 9 8 7 6 6 5 5 6 7 8 9 10 10 10 12 12 14 20 23 23 22 20 17 15 13 10 7 7 8 8 8 8 6 5 5 6 8 11 12 11 10 9 8 8 7 7 6 6 6 6 6
23 20 19 18 20 20 20 20 19 18 17 16 15 14 13 12 12 13 13 13 13 13 12 12 11 12 12 11 10 10 10 10 9 9 9 8 7 7 6 6 6 7 7 8 9 11 11 11 11 11 16 21 23 23 22 19 16 15 13 10 7 7 8 8 8 6 4 3 5 6 7 8 9 9 8 7 7 6 5 5 4 4 4 5 5
21 20 19 19 21 21 20 19 18 17 16 15 15 14 13 12 12 13 13 13 13 13 12 11 11 11 11 11 11 11 10 9 9 8 8 7 7 7 7 7 7 8 8 9 10 12 12 12 11 11 16 22 23 23 20 18 17 15 13 9 7 7 8 8 8 6 4 3 5 6 5 5 6 6 6 5 4 4 3 2 2 3 3 4 5
20 19 20 21 22 21 20 18 17 16 16 15 15 14 13 12 12 13 13 13 13 12 11 11 10 10 10 11 11 11 10 9 9 8 7 7 7 7 8 8 9 9 9 9 10 12 12 13 11 11 16 21 22 22 20 18 16 15 13 10 8 6 7 7 7 6 4 3 4 4 4 3 4 4 4 3 2 2 1 1 1 2 3 4 5
18 17 19 21 21 21 19 18 17 16 16 15 15 15 14 13 13 13 13 12 12 11 11 10 10 9 9 9 10 10 10 8 8 7 6 6 7 7 8 9 9 9 9 10 11 11 12 13 12 11 15 19 21 21 19 18 17 15 12 10 7 5 6 6 5 5 4 3 2 3 3 2 2 2 2 2 1 0 1 1 1 2 3 3 4
18 17 18 20 20 20 19 18 17 16 16 16 15 15 14 13 13 13 12 12 11 11 10 9 9 9 8 8 9 10 9 8 7 6 4 4 5 6 7 9 9 9 9 9 10 11 11 11 11 11 14 18 19 20 19 18 16 14 11 9 7 4 4 4 3 3 4 2 2 1 1 2 2 1 1 1 2 2 2 3 2 3 2 3 4
18 17 17 18 19 18 17 17 16 16 15 15 15 14 14 13 13 12 12 12 11 11 10 9 9 8 9 8 8 8 9 9 7 6 4 3 4 5 6 7 8 8 8 9 9 10 10 10 10 10 13 17 18 19 19 17 15 12 10 8 6 4 3 2 2 3 4 4 2 1 1 2 3 3 3 3 4 4 4 4 4 3 3 3 5
18 17 17 17 17 17 16 16 15 15 14 14 13 13 13 12 12 11 11 11 11 11 10 10 10 9 9 9 8 7 8 8 8 7 6 4 3 4 5 6 6 7 7 8 8 9 9 9 9 9 11 16 18 19 19 18 16 12 9 8 7 5 4 1 1 3 5 5 4 3 3 3 4 5 4 4 4 5 5 5 5 4 4 4 5
19 18 18 18 17 17 16 15 15 14 13 13 12 12 12 11 11 11 11 11 10 10 11 11 10 10 10 9 8 8 7 7 7 8 7 6 5 4 4 5 6 6 6 7 7 7 8 8 8 8 9 14 17 18 19 18 16 13 9 8 8 6 4 2 2 4 6 7 6 5 4 4 5 5 6 5 5 6 7 6 5 5 5 5 4
19 19 18 18 17 16 15 14 14 13 13 12 12 12 11 11 11 10 10 10 10 10 11 11 11 11 10 10 10 8 7 5 6 6 6 6 5 4 4 4 5 6 6 6 6 6 7 7 8 8 8 11 16 17 17 18 17 14 10 9 9 6 4 3 3 4 7 8 7 6 5 5 6 6 7 6 7 7 7 6 6 5 4 4 4
20 19 19 18 16 15 14 14 14 13 12 12 12 12 12 12 11 11 10 10 9 10 11 11 11 11 11 10 9 8 7 5 4 4 4 5 5 4 4 4 4 5 5 6 6 6 6 6 7 8 8 10 13 16 17 17 17 15 11 10 9 6 4 3 2 4 7 8 8 7 6 6 7 7 8 8 8 8 8 7 6 4 3 3 4
19 18 18 17 15 15 14 13 13 13 12 12 12 12 12 12 12 11 10 10 10 9 10 9 9 10 10 8 8 8 7 5 4 3 2 3 4 4 4 5 6 6 6 6 6 6 6 6 7 7 8 9 11 14 16 16 16 14 12 10 9 7 6 5 3 3 6 9 10 9 8 8 8 8 9 9 9 9 8 6 5 4 3 3 3
19 16 16 15 15 14 13 13 12 12 11 11 12 12 12 11 11 10 10 10 9 9 9 9 9 9 8 7 7 7 7 6 5 3 2 2 3 3 4 4 6 7 8 8 7 7 6 7 7 8 8 9 10 13 14 15 14 12 11 10 10 9 8 6 4 4 7 11 11 10 9 9 9 9 9 10 10 9 7 5 4 4 3 2 2
17 16 16 15 15 14 13 13 12 12 11 11 11 11 11 10 9 9 9 9 9 10 9 8 8 8 8 7 7 7 7 6 5 4 3 4 5 4 4 4 5 7 9 10 9 9 8 8 8 9 9 9 10 12 13 13 12 10 10 11 10 10 8 6 5 5 9 11 11 10 10 10 10 10 10 10 10 9 6 5 5 4 2 1 1
16 16 16 15 16 14 12 12 12 12 11 11 10 11 10 9 9 8 9 9 8 9 8 8 8 8 8 7 8 7 6 6 5 5 5 6 6 7 7 6 5 7 8 10 11 10 10 10 10 11 11 11 10 11 12 12 11 8 8 11 10 9 9 7 6 7 9 11 10 10 10 10 10 10 10 10 10 8 6 5 5 3 1 1 1
15 15 15 15 15 14 13 12 11 11 11 11 11 11 10 9 9 8 8 8 8 8 8 8 8 8 8 8 8 7 7 6 6 6 7 7 7 7 8 8 7 7 7 9 11 12 12 12 12 12 12 12 12 11 12 12 11 9 7 10 9 8 10 9 8 8 11 12 12 10 9 8 9 10 10 10 10 8 6 5 4 3 2 2 2
16 16 15 15 15 14 13 13 12 11 11 11 11 12 11 10 10 9 8 8 7 8 8 7 8 9 8 8 7 8 8 8 7 7 8 9 9 9 8 8 9 9 8 8 10 12 12 13 14 14 12 12 13 13 13 13 12 10 8 9 9 9 10 11 10 11 12 13 13 12 10 10 10 11 11 10 8 7 6 5 4 3 2 2 3
17 16 15 15 15 14 13 13 12 11 11 11 11 11 10 9 9 9 9 8 7 7 7 6 8 9 8 7 7 8 9 9 9 9 10 10 10 10 10 9 10 10 9 9 10 11 12 12 14 14 14 13 15 15 14 13 12 12 10 10 10 11 12 13 13 12 13 13 13 13 13 12 11 12 11 9 7 6 5 4 4 3 2 2 2
16 16 14 14 15 15 13 13 12 12 12 11 11 10 9 9 8 8 8 7 7 7 6 7 8 8 8 7 8 8 8 8 9 10 10 10 10 10 10 10 10 10 10 10 10 11 12 13 13 13 14 14 15 17 16 15 14 13 13 13 13 13 14 15 15 14 14 14 14 14 14 12 11 12 11 8 7 6 5 5 4 4 3 2 2
16 15 14 14 14 14 14 13 13 12 11 10 10 9 8 8 8 7 6 6 6 5 5 6 6 7 7 8 9 9 9 8 8 8 9 9 10 9 10 10 10 10 11 11 11 11 12 13 14 13 13 14 15 16 18 18 16 15 15 17 16 14 15 17 18 17 16 17 16 15 14 13 11 11 10 8 6 5 6 6 5 5 4 3 3
16 14 13 13 12 12 13 13 12 11 10 9 9 9 8 8 7 7 5 5 5 4 5 5 5 6 6 7 8 8 8 8 7 7 8 9 10 10 10 10 10 11 12 12 12 12 13 14 15 15 14 14 16 17 18 20 19 18 18 19 18 16 16 18 20 20 19 20 20 18 15 14 12 10 8 7 6 6 7 7 6 5 4 4 4
16 15 14 13 12 11 11 11 11 10 9 9 8 7 7 6 6 5 5 5 4 4 4 5 5 5 5 5 6 7 7 7 8 8 9 10 10 10 10 10 10 11 12 13 14 14 14 15 16 16 17 18 19 19 20 21 21 21 20 20 20 18 18 20 21 23 23 23 23 21 17 14 12 10 8 7 7 7 7 7 7 6 5 5 5
15 15 14 12 11 10 10 9 9 8 7 7 7 6 4 4 3 3 5 5 4 4 4 5 5 4 4 5 5 6 7 8 8 9 10 11 11 11 10 10 10 11 12 13 14 16 17 17 17 18 18 19 20 20 21 22 22 22 22 22 22 20 19 21 23 24 24 23 24 22 18 15 12 10 8 8 7 7 8 8 7 6 6 6 6
15 15 14 12 11 11 10 9 8 7 7 6 6 5 2 2 1 1 3 3 3 4 5 5 4 4 5 5 6 7 8 9 9 10 11 11 12 12 11 10 11 12 12 13 15 16 17 18 18 19 19 20 20 20 20 21 22 22 22 23 24 24 22 21 22 24 24 22 22 22 20 17 13 11 10 9 8 8 8 9 8 8 8 7 7
14 14 14 12 11 11 10 9 8 7 7 7 6 4 3 3 3 3 4 4 5 5 6 7 6 6 6 6 6 7 8 9 10 10 11 11 12 12 12 11 12 12 13 14 15 16 17 18 19 20 21 21 21 21 20 21 21 21 23 23 25 28 26 23 21 22 23 23 22 22 21 19 15 12 11 10 9 9 9 10 9 9 9 9 9
14 13 13 12 11 10 10 9 8 7 7 7 6 4 4 5 5 5 5 6 7 7 7 8 6 6 7 7 8 9 9 10 10 12 12 12 13 13 12 12 12 13 13 14 15 16 17 18 19 20 21 22 22 21 21 21 22 22 23 23 25 28 27 26 25 22 21 21 21 22 22 20 18 15 12 12 11 10 11 11 11 10 10 10 10
14 14 12 12 12 10 9 8 7 6 6 6 6 6 6 7 8 7 7 8 8 8 8 8 8 8 7 8 10 11 11 12 12 13 14 14 14 14 13 13 14 14 14 14 15 16 17 19 20 21 21 23 23 23 22 21 22 24 24 25 26 27 27 28 27 25 24 22 20 21 22 21 20 17 15 14 12 12 13 13 12 11 11 11 11
15 14 13 13 13 11 10 9 8 7 7 7 7 7 8 8 9 8 7 8 9 9 9 8 8 9 10 11 12 12 13 14 15 15 15 16 16 15 14 13 14 15 15 15 15 17 18 19 20 21 22 23 24 24 23 22 23 25 26 25 27 28 29 29 29 29 28 26 24 23 23 23 21 18 17 17 15 14 15 14 14 12 11 12 12
14 12 13 15 15 13 12 11 10 8 8 8 7 8 9 9 10 9 8 8 9 10 10 8 8 9 11 12 13 13 14 15 15 16 16 17 17 17 15 14 14 14 15 17 17 17 18 19 20 20 22 23 24 24 23 23 24 26 26 26 28 30 31 31 31 32 30 28 27 26 24 24 23 20 19 19 18 16 16 16 15 13 12 13 14
14 12 11 13 13 13 12 10 10 10 10 10 10 10 9 9 10 9 9 8 9 10 10 9 10 11 11 12 13 14 14 15 16 17 17 17 17 16 15 15 14 14 17 19 19 18 18 19 20 21 21 22 24 23 23 24 26 28 27 27 29 30 32 33 33 33 31 29 29 29 27 25 24 22 20 22 20 18 18 17 16 15 14 15 16
16 15 12 11 11 10 10 9 8 9 10 10 10 10 10 10 10 9 8 8 9 10 9 9 10 11 12 13 14 14 14 15 16 17 17 17 17 17 15 14 12 12 16 18 18 18 19 20 20 21 22 22 23 23 23 24 26 28 27 26 28 28 30 32 34 35 34 32 31 30 28 26 26 24 23 24 23 20 19 18 18 17 16 16 17
14 13 12 11 11 10 10 9 8 7 7 8 9 9 10 10 10 10 9 9 9 9 9 10 11 11 12 13 14 14 14 15 15 16 17 17 17 17 15 14 13 13 15 16 16 17 18 19 21 21 22 23 24 23 22 23 25 27 26 26 26 24 25 28 31 32 33 33 33 31 29 28 28 26 25 26 24 22 20 19 19 19 18 17 17
14 13 13 13 12 12 10 9 9 9 7 7 8 9 10 10 10 10 10 9 9 9 10 11 11 11 11 12 12 13 14 14 15 16 18 18 18 18 17 17 16 16 16 17 17 17 18 20 21 22 23 24 25 25 24 24 25 26 27 27 24 21 24 27 27 28 29 30 32 32 31 30 29 27 26 26 25 23 22 21 21 21 20 19 18
14 13 13 13 12 11 10 8 9 10 9 8 8 9 9 11 11 10 10 9 8 8 9 10 11 12 13 13 12 12 14 15 15 16 17 17 17 18 18 19 19 19 19 19 19 19 20 21 22 23 23 24 25 26 26 26 26 27 28 30 28 27 28 27 24 24 25 26 29 32 33 31 30 29 28 27 26 24 23 23 22 22 21 20 19
11 10 10 10 8 6 6 7 9 11 11 11 10 10 9 9 10 8 7 7 6 6 6 6 8 10 13 14 13 13 14 14 14 15 15 15 15 16 17 18 20 19 20 20 20 21 21 22 23 23 23 24 25 26 28 28 28 30 30 31 31 32 33 32 29 25 23 23 25 29 32 32 31 32 30 29 27 26 25 24 23 23 23 22 21
9 9 9 7 5 7 11 13 14 15 15 15 14 13 12 9 8 7 5 5 5 5 5 5 6 7 10 11 11 12 12 12 13 14 14 14 14 15 15 17 19 18 19 20 20 20 21 22 22 23 24 25 26 28 29 29 30 32 31 31 31 32 34 36 36 32 27 23 23 25 29 31 32 32 31 30 28 27 28 27 25 24 24 23 23
7 8 6 4 6 10 13 15 16 17 16 17 17 16 15 14 12 10 8 7 6 6 6 7 7 7 8 8 8 9 9 10 11 12 12 12 13 15 15 16 18 17 18 19 20 20 20 22 23 24 26 27 28 29 31 31 31 31 31 31 32 32 33 35 36 35 33 28 25 26 28 30 32 32 31 30 28 28 30 29 27 26 25 24 25
3 3 2 4 7 8 11 11 12 13 13 15 17 18 17 16 15 13 12 11 11 11 11 11 11 10 8 7 7 8 8 9 10 10 10 10 10 12 14 15 16 16 18 19 20 21 21 22 23 25 26 27 28 28 30 31 30 29 29 30 32 33 32 34 35 35 35 33 27 25 26 28 31 31 30 30 30 31 31 30 28 27 26 25 25
3 5 5 4 4 4 5 6 4 4 7 10 14 16 17 17 16 16 15 14 14 15 15 15 15 13 11 10 10 10 9 9 10 10 11 11 11 11 11 12 14 15 17 18 19 20 21 22 23 25 26 27 28 28 29 30 30 29 29 30 32 33 34 35 35 33 34 36 32 27 24 24 26 27 26 27 29 32 32 31 30 29 27 25 25
Wind_Direction
161 155 153 149 153 153 150 148 143 141 137 132 125 120 112 106 105 102 98 92 87 88 93 97 101 104 105 105 103 103 103 104 104 103 104 104 103 101 98 95 94 94 95 95 95 95 95 97 96 94 92 92 93 94 94 93 92 91 89 87 85 85 84 80 78 80 83 69 64 70 83 93 85 77 83 87 87 86 85 88 91 90 88 87 86
160 155 152 149 154 153 152 150 146 144 138 134 128 123 115 109 108 106 103 98 93 91 94 98 100 102 104 104 102 102 103 105 105 104 103 100 98 97 97 96 95 94 95 96 95 94 95 97 96 95 92 93 95 96 96 93 92 92 90 88 85 86 85 79 74 73 73 69 69 69 77 86 85 82 86 91 90 87 85 87 89 88 88 88 88
159 155 150 150 156 155 154 152 150 146 139 136 130 126 118 112 111 110 107 103 100 95 97 100 100 102 104 104 102 103 104 105 105 103 100 98 97 96 96 95 95 95 95 96 93 92 94 96 97 95 94 95 96 98 96 92 92 91 89 87 82 80 76 71 69 68 67 67 75 76 80 87 87 88 91 94 94 89 86 87 89 88 88 88 86
160 156 153 152 156 157 156 154 152 146 140 136 133 129 121 116 113 114 111 109 105 99 101 101 102 103 105 105 104 105 105 106 105 103 100 98 97 96 96 95 96 96 96 95 92 92 93 96 98 97 97 96 99 102 97 95 97 93 91 89 85 80 68 64 63 65 67 64 75 91 91 94 93 92 94 95 95 91 88 88 90 89 89 88 86
161 159 156 154 157 158 157 156 152 146 141 137 136 132 124 118 116 118 116 114 110 105 105 105 104 105 108 109 108 107 107 106 105 104 101 98 97 96 96 96 97 96 95 94 94 95 93 95 97 97 97 97 103 105 101 103 102 97 95 92 90 86 72 68 62 58 65 63 71 96 97 97 96 94 94 94 95 93 93 93 93 91 90 88 86
161 161 159 156 156 158 157 155 151 146 142 139 139 134 126 120 121 123 121 119 115 110 109 109 108 108 111 112 112 110 109 108 107 106 104 102 100 99 98 97 97 96 95 93 93 93 93 95 96 96 97 100 109 110 110 111 106 101 99 95 92 91 83 82 77 64 64 65 72 97 101 100 97 96 94 93 95 96 96 94 93 90 88 86 83
158 161 161 158 156 155 155 153 150 146 143 142 141 135 127 124 126 128 125 124 120 115 113 112 112 112 113 115 115 114 113 111 111 110 109 108 106 104 102 101 98 93 92 93 90 90 93 95 94 93 95 104 115 120 122 119 111 105 99 93 92 94 95 98 101 91 74 70 80 102 105 103 100 99 97 95 95 96 94 92 91 85 81 81 79
158 162 161 158 156 152 152 151 148 147 144 143 141 137 131 129 132 133 131 128 125 121 118 117 117 116 116 118 118 117 117 116 116 115 114 113 110 108 106 104 101 97 91 88 87 89 93 97 98 93 97 108 119 129 132 125 114 107 99 95 95 100 103 102 99 92 81 78 87 105 105 103 103 102 98 94 91 88 85 85 85 84 82 78 75
162 159 158 156 153 149 150 150 148 147 145 143 142 140 137 135 138 139 136 133 129 125 123 123 123 122 120 120 122 122 122 121 120 119 117 116 113 111 108 104 101 97 90 83 83 90 98 108 110 104 109 115 123 134 134 124 113 106 99 97 98 99 97 93 88 81 78 79 89 107 107 106 107 105 99 94 90 86 82 80 79 81 83 80 75
160 154 154 154 150 148 150 151 148 147 144 144 145 145 143 142 144 144 141 138 133 129 129 129 127 127 126 126 125 124 125 125 124 122 121 119 118 115 108 103 98 94 88 84 86 92 102 110 114 116 120 122 129 135 130 120 112 105 101 100 97 93 90 90 90 85 81 83 95 114 113 113 112 108 103 99 94 89 85 82 78 73 73 71 69
154 151 152 151 150 150 151 151 148 145 145 147 149 150 150 148 148 147 146 143 139 134 131 132 132 131 134 134 130 127 127 128 129 127 127 126 124 122 115 105 97 94 89 87 92 93 100 109 116 122 125 129 135 134 128 121 115 110 109 110 107 97 93 92 91 87 87 88 98 117 119 117 114 110 107 102 95 90 87 84 78 71 65 61 59
152 150 150 151 149 149 151 150 146 146 148 150 152 154 155 153 150 150 149 147 144 137 132 136 137 136 139 138 135 132 129 130 133 133 131 130 129 129 123 111 100 96 93 93 95 96 102 112 121 126 127 134 138 134 127 123 120 119 120 124 124 107 94 89 89 91 94 95 99 115 120 118 114 111 108 104 98 92 87 83 78 74 68 59 55
150 149 148 148 145 145 147 145 146 147 150 152 154 156 156 154 151 152 152 150 148 140 136 140 140 137 139 138 138 136 133 132 136 139 137 132 131 134 126 111 100 97 97 99 100 101 107 116 126 127 128 137 138 131 127 126 126 128 132 137 134 113 99 93 90 92 95 97 103 122 125 120 117 116 115 110 103 96 88 83 76 73 69 59 50
147 148 145 145 141 140 142 143 147 148 152 153 154 154 154 153 153 155 154 153 151 144 141 143 141 137 137 137 137 137 138 139 142 146 143 136 131 134 125 112 105 105 106 106 106 105 110 117 125 125 129 137 136 130 128 130 130 132 139 144 139 123 114 108 97 88 92 107 117 130 132 120 117 118 119 114 107 102 92 83 74 68 62 50 42
146 146 145 144 140 140 142 144 147 148 150 149 149 150 150 153 154 156 154 156 154 148 145 146 143 140 139 137 138 139 142 144 146 151 146 133 126 130 124 118 119 119 117 112 109 107 111 118 122 122 132 138 135 132 133 133 132 133 141 148 148 135 118 107 97 88 91 125 129 136 136 122 120 119 120 116 110 109 101 87 70 58 44 26 28
146 146 147 145 142 142 142 143 144 144 145 144 146 146 149 153 154 156 156 157 155 150 148 148 148 148 144 139 140 141 144 146 146 150 146 132 125 128 125 124 126 125 123 117 112 110 112 118 120 120 134 142 138 136 137 135 135 138 146 158 160 141 118 104 95 85 78 110 127 140 141 139 143 132 129 127 121 114 102 80 54 26 19 8 17
144 147 149 145 143 141 141 142 142 143 144 143 145 146 150 153 153 156 156 157 155 152 151 152 156 154 150 143 140 141 144 147 148 151 146 134 125 126 127 128 130 130 129 123 117 114 115 120 120 121 137 147 144 141 140 137 138 142 153 169 171 145 122 114 98 74 59 81 106 137 150 179 192 157 147 148 201 247 296 308 324 331 350 357 9
146 152 151 147 142 140 141 141 144 146 146 146 146 149 151 153 154 155 155 155 154 153 154 159 161 158 157 151 142 140 144 147 151 154 150 138 128 126 130 132 134 135 133 127 122 121 120 122 124 124 140 152 152 146 142 140 139 144 159 175 178 160 137 121 88 40 29 42 65 130 188 255 277 279 218 237 262 271 284 289 296 308 332 348 4
150 154 151 147 141 140 142 141 145 145 146 146 146 149 150 154 154 154 153 155 156 156 159 163 164 164 164 159 149 144 143 149 156 161 162 152 138 134 134 136 136 137 136 131 127 128 127 128 129 129 143 157 160 154 147 145 142 147 164 174 179 182 178 143 43 12 6 0 2 315 269 281 292 291 278 268 269 279 289 293 300 311 327 346 3
151 155 151 147 143 143 144 142 145 142 142 142 143 147 150 155 154 155 155 157 161 161 165 166 166 166 168 166 161 156 147 150 157 166 172 174 168 153 147 143 139 138 139 136 133 135 136 136 138 135 145 159 166 162 156 152 148 152 168 177 187 200 206 220 351 0 353 342 332 311 290 285 290 293 287 279 280 288 293 296 303 317 331 350 8
154 156 152 150 147 148 148 145 144 140 140 137 139 143 147 153 155 159 159 162 166 165 167 167 166 166 171 171 164 160 149 146 152 166 177 183 190 181 168 159 152 149 145 143 143 144 145 147 149 146 148 159 168 168 165 161 155 158 171 187 204 210 218 266 323 341 336 329 321 310 296 289 292 298 292 285 286 293 296 301 312 327 334 348 12
157 156 155 154 150 151 149 147 145 141 141 138 138 140 145 150 154 161 162 165 166 166 167 167 170 169 172 170 163 159 151 143 140 151 170 182 197 203 199 185 172 165 161 158 157 157 157 156 158 159 156 161 170 175 174 171 165 162 173 201 214 208 211 267 309 330 331 325 318 310 299 292 293 295 291 286 287 293 299 305 319 332 338 348 2
159 158 157 155 153 153 151 150 147 146 146 142 141 144 148 150 154 162 163 165 162 163 167 171 174 170 171 170 167 167 161 157 147 145 157 169 185 205 222 221 211 196 185 177 172 173 169 166 167 168 168 168 173 179 181 178 174 168 176 211 224 214 222 256 290 320 326 322 312 305 298 291 289 291 292 294 297 304 308 309 319 328 334 343 353
161 162 158 155 155 154 153 152 151 152 153 149 149 153 155 156 160 168 169 166 164 164 169 177 175 168 171 176 178 181 185 189 189 191 176 167 172 191 214 230 235 228 218 207 196 194 185 176 175 175 177 175 174 179 183 183 181 174 180 215 237 238 242 253 262 301 319 320 311 298 291 289 288 290 297 304 309 314 313 311 317 316 320 331 354
162 162 158 155 155 156 156 157 159 159 158 156 157 161 165 166 169 175 178 171 169 172 176 180 175 170 178 186 185 188 201 214 215 217 238 236 214 199 201 217 233 237 236 229 217 214 207 191 184 183 180 178 176 179 184 186 185 179 184 210 238 249 255 262 266 305 319 315 310 301 292 290 293 297 303 308 310 314 313 308 305 306 312 317 355
161 160 158 158 157 159 160 162 165 162 160 161 163 171 175 177 179 184 183 177 176 178 184 189 184 183 191 199 199 203 211 221 231 227 241 264 275 267 241 224 227 236 239 238 229 221 220 209 194 191 183 177 179 183 186 188 190 184 184 202 229 253 265 277 284 314 316 308 308 306 296 291 295 299 303 304 307 313 309 298 296 298 293 280 15
158 160 160 160 160 158 159 165 169 164 162 163 168 179 183 187 190 194 188 182 183 187 200 208 203 198 201 209 213 222 227 235 246 248 251 259 274 283 280 264 245 240 240 243 239 224 219 218 204 198 194 189 189 189 190 191 198 195 187 197 219 250 262 274 289 305 306 303 306 309 301 292 293 296 299 299 302 306 301 294 294 289 251 204 142
160 162 161 160 160 158 158 166 170 166 164 165 173 183 189 190 193 200 195 190 190 197 214 223 219 211 213 224 231 238 244 251 254 259 263 258 262 277 283 274 265 257 243 242 244 233 219 216 211 205 203 205 207 204 204 204 205 209 194 188 208 247 262 267 277 287 291 291 295 302 304 297 294 297 298 299 300 299 294 288 284 274 235 177 146
163 164 162 160 160 161 161 166 170 167 165 166 170 181 188 188 191 199 200 201 202 206 214 224 227 223 225 233 243 252 253 257 262 267 269 267 267 275 278 269 264 263 253 242 242 240 229 220 214 209 206 211 217 217 219 219 213 214 204 189 207 244 259 264 270 276 280 280 281 287 293 297 302 305 300 298 298 291 283 278 270 257 220 167 145
166 166 162 161 161 165 167 167 167 165 167 164 164 175 184 185 190 196 201 205 207 213 216 224 231 233 239 242 249 256 257 259 264 270 271 271 272 275 276 267 261 261 261 253 243 243 240 231 221 213 208 210 219 223 225 229 225 222 216 207 221 239 249 259 267 271 272 270 271 278 286 294 305 313 307 295 291 283 272 258 246 243 219 177 153
163 164 161 162 162 166 171 167 165 167 170 165 163 172 179 183 190 197 202 208 213 222 228 236 236 238 247 255 261 261 257 256 258 266 269 269 271 273 273 271 268 263 261 261 252 247 242 237 233 227 219 214 219 225 229 235 237 235 228 222 227 235 241 251 260 263 265 263 266 275 283 291 300 312 309 290 282 279 266 245 226 221 202 181 168
159 161 161 165 164 165 167 163 163 168 172 170 168 170 173 177 184 193 210 219 223 231 238 247 242 241 251 259 264 262 263 263 264 272 273 272 272 273 271 269 271 267 261 260 256 252 244 239 241 243 238 231 229 230 234 242 248 246 234 226 228 237 240 244 252 255 259 262 265 272 279 284 290 304 304 284 275 265 251 242 225 213 194 181 176
155 158 158 159 158 157 158 157 161 166 171 175 175 171 171 174 177 187 210 223 227 238 246 252 250 253 261 262 262 265 273 279 284 288 283 280 278 277 275 271 272 268 263 262 260 257 252 248 247 250 254 255 252 248 248 253 259 256 241 228 226 237 243 244 250 254 256 260 264 269 272 275 280 292 294 278 268 252 242 233 217 208 194 186 182
152 154 153 150 148 148 149 150 155 161 169 176 178 175 174 175 175 178 191 207 220 238 243 244 251 261 268 269 271 277 285 288 291 292 289 288 287 287 286 284 281 274 267 265 265 265 263 261 258 257 259 261 262 260 259 261 264 261 248 234 227 235 246 247 249 252 253 256 261 263 264 267 272 280 284 276 264 248 240 226 214 210 200 195 188
147 150 153 150 147 147 145 147 149 153 164 171 174 179 182 174 169 173 181 190 203 232 255 258 256 259 268 280 290 294 295 293 290 288 288 291 292 293 294 292 286 278 272 267 266 268 269 270 268 267 265 264 264 264 263 263 265 263 252 237 229 232 245 250 248 249 250 251 253 253 254 260 265 272 275 272 263 248 238 230 226 219 209 204 197
139 145 152 151 150 149 144 148 149 147 152 162 173 183 199 199 196 216 209 214 227 249 275 285 279 275 285 296 307 308 302 296 291 287 288 290 294 297 298 295 286 279 274 270 268 268 270 272 274 276 276 275 272 270 268 265 265 265 256 242 233 233 243 251 247 244 245 244 244 242 246 251 254 261 264 263 259 249 238 235 235 227 219 213 205
134 140 145 145 148 148 146 153 158 153 151 161 178 193 212 242 246 240 241 256 273 278 289 298 299 297 298 292 294 303 300 294 291 289 289 289 291 294 296 296 291 282 276 274 274 275 275 275 277 280 281 280 278 277 275 269 265 264 259 249 240 238 244 249 244 239 240 242 242 240 242 245 245 249 252 256 255 248 241 239 240 232 227 223 212
135 140 142 143 145 146 149 156 160 158 158 165 180 200 220 249 255 253 255 266 276 275 284 291 284 283 288 276 269 279 289 292 293 292 291 290 289 290 292 294 293 288 284 282 283 283 281 280 280 280 278 276 276 277 277 272 267 263 261 254 248 247 248 249 246 241 239 241 242 244 243 241 241 243 247 253 254 249 243 242 244 237 230 227 218
140 143 142 143 144 146 150 153 159 161 168 180 190 203 222 245 254 262 265 268 276 275 279 279 267 263 267 266 266 273 287 295 298 297 296 294 292 292 294 296 296 294 290 287 285 283 281 280 279 277 274 272 271 273 273 271 267 264 262 257 254 255 254 252 252 249 247 246 244 244 243 241 242 243 245 249 252 250 244 243 246 241 233 227 222
145 145 146 150 149 150 156 160 167 174 180 191 201 207 216 234 247 258 263 266 274 280 282 277 268 265 268 273 274 276 284 292 296 296 296 297 298 299 300 301 298 294 291 288 281 276 274 273 274 273 271 270 270 271 271 269 267 265 263 259 257 257 258 257 257 255 255 256 251 246 243 242 244 246 245 246 248 248 244 243 243 241 233 225 223
152 151 149 154 154 152 162 171 175 185 190 198 213 218 217 224 233 241 247 257 269 280 289 291 282 274 273 277 278 279 282 288 293 293 295 299 302 305 306 307 303 298 294 287 278 273 272 272 272 272 271 272 273 274 274 272 270 267 264 261 258 257 257 258 258 257 256 255 253 249 245 242 244 247 246 243 244 243 244 243 238 236 232 223 222
151 157 151 150 153 150 157 167 174 187 197 205 214 219 222 225 230 233 237 246 258 270 281 289 285 280 278 278 278 279 281 286 291 293 296 299 302 304 306 306 305 303 296 287 283 282 280 277 275 274 274 275 276 276 277 275 273 271 269 266 263 262 259 256 256 258 255 253 251 249 246 243 243 246 245 242 242 241 241 242 236 233 231 222 220
141 146 148 146 152 154 158 162 170 188 204 216 219 221 226 231 235 235 241 249 254 262 267 269 272 275 279 279 278 278 277 280 288 295 298 299 300 298 297 299 299 301 295 289 289 286 282 280 278 280 281 280 279 276 275 274 275 275 272 268 267 268 265 259 255 255 256 256 254 250 245 243 244 247 246 241 240 240 239 240 238 234 230 223 220
141 141 148 153 155 164 172 175 179 188 207 222 226 232 233 236 238 233 236 248 253 258 259 260 264 266 268 272 275 278 279 282 289 296 299 301 299 296 294 293 293 296 295 292 290 286 284 283 282 283 283 282 283 283 279 274 272 271 269 267 268 267 265 263 260 258 257 256 255 252 247 243 244 246 244 240 238 238 238 240 239 236 230 224 221
159 162 165 169 167 172 182 192 195 193 207 220 224 235 238 238 239 234 234 243 251 253 251 253 258 259 259 261 266 274 279 281 285 292 297 299 299 298 295 291 289 291 293 293 292 290 287 285 284 284 283 283 284 286 285 279 273 269 265 263 262 259 260 265 266 263 260 255 254 252 246 241 242 242 240 239 238 236 235 239 239 236 232 224 220
151 155 158 164 167 173 182 197 207 208 215 219 222 233 238 237 236 235 233 237 245 249 252 256 259 263 261 259 262 272 278 278 281 287 291 294 295 295 293 291 291 292 292 292 291 290 287 286 286 284 283 282 282 282 283 281 278 274 268 263 259 257 261 264 263 262 263 260 254 248 243 239 238 238 236 236 237 236 235 238 240 237 234 226 219
144 151 157 157 157 172 202 227 239 238 235 233 233 238 245 242 236 235 230 227 231 231 240 252 263 270 267 266 268 270 277 279 280 283 287 292 292 290 290 292 293 291 291 291 290 289 288 289 288 285 283 281 280 280 280 281 278 275 273 268 264 261 261 260 257 257 259 257 251 247 244 240 236 235 233 233 234 236 236 238 241 239 235 230 223
158 174 174 167 187 228 245 249 247 247 247 245 243 244 250 250 239 232 226 222 222 220 229 242 256 267 268 273 275 271 275 280 281 283 288 294 294 291 292 294 294 294 295 295 293 292 291 290 289 288 286 283 281 280 280 280 278 277 278 273 268 264 261 260 258 255 250 249 249 247 245 239 236 233 231 232 232 236 239 240 241 240 236 232 225
162 184 182 192 230 242 246 248 247 245 244 242 243 244 247 251 248 245 244 241 238 236 242 246 249 257 261 265 268 267 271 274 277 284 290 298 303 300 297 295 295 296 298 298 297 297 296 294 293 292 291 288 286 283 281 281 280 279 280 276 271 265 261 261 259 253 247 246 245 243 241 237 234 233 232 233 235 238 241 241 241 240 237 233 228
155 199 229 254 259 259 257 260 261 254 244 238 238 237 239 244 246 249 252 252 253 252 252 254 253 255 255 255 258 258 260 261 264 269 277 286 292 295 297 298 297 296 297 299 297 296 295 295 294 294 294 293 292 289 285 283 282 279 278 276 271 265 261 259 256 251 245 244 241 234 235 235 233 234 235 236 237 238 239 238 238 237 236 234 229
347 338 333 310 282 278 286 303 314 283 255 245 240 236 235 237 242 248 252 256 259 259 260 263 262 259 255 255 259 259 261 265 263 260 262 268 271 276 286 293 296 298 298 300 299 298 298 297 296 295 296 296 296 294 290 285 281 276 275 273 270 266 263 258 257 255 249 244 238 229 228 233 234 235 236 238 238 239 237 234 233 233 234 233 229